NOZ1171 BIKF-ENGM

Flight info

Callsign NOZ1171
Flight time N/A
Altitude 33000
Route OSKUM3D OSKUM DCT 63N010W DCT IPTON/N0423F330 DCT ADOPI
Aircraft B738/M-SDE2E3GHIJ1LRWXY/LB1

Departure

Time N/A
Airport Keflavik International Airport (BIKF)

Arrival

Time 2026-05-03 20:45
Airport Oslo-Gardermoen International Airport (ENGM)
Time Latitude Longitude Altitude Speed Heading
2026-05-03 20:15 61.20046 5.05408 34891 ft 475 kts 115°
2026-05-03 20:15 61.17719 5.18203 34904 ft 474 kts 115°
2026-05-03 20:16 61.15383 5.30966 34886 ft 473 kts 115°
2026-05-03 20:16 61.13041 5.43679 34897 ft 472 kts 115°
2026-05-03 20:17 61.10824 5.56464 34877 ft 475 kts 108°
2026-05-03 20:17 61.09285 5.69752 34884 ft 476 kts 106°
2026-05-03 20:18 61.07824 5.83071 34882 ft 475 kts 107°
2026-05-03 20:18 61.06289 5.96348 34877 ft 475 kts 107°
2026-05-03 20:19 61.04720 6.09615 34864 ft 476 kts 107°
2026-05-03 20:19 61.03143 6.22866 34866 ft 476 kts 107°
2026-05-03 20:20 61.01555 6.36130 34840 ft 477 kts 107°
2026-05-03 20:20 60.99954 6.49399 34842 ft 477 kts 108°
2026-05-03 20:21 60.98339 6.62664 34845 ft 477 kts 108°
2026-05-03 20:21 60.96712 6.75910 34839 ft 477 kts 108°
2026-05-03 20:22 60.95071 6.89139 34809 ft 477 kts 108°
2026-05-03 20:22 60.93419 7.02346 34826 ft 477 kts 108°
2026-05-03 20:23 60.91758 7.15508 34833 ft 475 kts 109°
2026-05-03 20:23 60.90099 7.28541 34831 ft 475 kts 109°
2026-05-03 20:23 60.89257 7.35109 34535 ft 478 kts 109°
2026-05-03 20:24 60.88406 7.41719 34028 ft 478 kts 109°
2026-05-03 20:24 60.87553 7.48315 33407 ft 478 kts 109°
2026-05-03 20:24 60.86697 7.54917 32743 ft 479 kts 109°
2026-05-03 20:24 60.85838 7.61505 32129 ft 477 kts 110°
2026-05-03 20:25 60.84979 7.68072 31501 ft 476 kts 110°
2026-05-03 20:25 60.84119 7.74620 30860 ft 476 kts 110°
2026-05-03 20:25 60.83255 7.81165 30222 ft 476 kts 110°
2026-05-03 20:25 60.82387 7.87711 29495 ft 476 kts 110°
2026-05-03 20:26 60.81517 7.94244 28736 ft 475 kts 110°
2026-05-03 20:26 60.80648 8.00752 28011 ft 473 kts 110°
2026-05-03 20:26 60.79777 8.07241 27245 ft 472 kts 109°
2026-05-03 20:26 60.78904 8.13714 26561 ft 471 kts 109°
2026-05-03 20:27 60.78037 8.20133 26029 ft 466 kts 109°
2026-05-03 20:27 60.77173 8.26495 25454 ft 462 kts 109°
2026-05-03 20:27 60.76315 8.32785 24919 ft 457 kts 109°
2026-05-03 20:27 60.75461 8.39019 24380 ft 453 kts 109°
2026-05-03 20:28 60.74611 8.45202 23856 ft 450 kts 109°
2026-05-03 20:28 60.73763 8.51339 23309 ft 447 kts 109°
2026-05-03 20:28 60.72917 8.57439 22687 ft 444 kts 109°
2026-05-03 20:28 60.72076 8.63481 22131 ft 441 kts 109°
2026-05-03 20:29 60.71239 8.69475 21584 ft 437 kts 109°
2026-05-03 20:29 60.70407 8.75409 21057 ft 433 kts 109°
2026-05-03 20:29 60.69581 8.81285 20524 ft 429 kts 109°
2026-05-03 20:29 60.68757 8.87117 20011 ft 426 kts 109°
2026-05-03 20:30 60.67936 8.92908 19480 ft 423 kts 109°
2026-05-03 20:30 60.67120 8.98649 18976 ft 420 kts 109°
2026-05-03 20:30 60.66308 9.04340 18429 ft 416 kts 109°
2026-05-03 20:30 60.65500 9.09977 17969 ft 413 kts 109°
2026-05-03 20:31 60.64694 9.15584 17361 ft 411 kts 109°
2026-05-03 20:31 60.63888 9.21169 16837 ft 411 kts 109°
2026-05-03 20:31 60.63081 9.26748 16310 ft 411 kts 109°
2026-05-03 20:31 60.62271 9.32325 15792 ft 410 kts 109°
2026-05-03 20:32 60.61462 9.37881 15270 ft 408 kts 109°
2026-05-03 20:32 60.60657 9.43391 14770 ft 405 kts 109°
2026-05-03 20:32 60.59855 9.48860 14279 ft 402 kts 109°
2026-05-03 20:32 60.59054 9.54307 13754 ft 400 kts 109°
2026-05-03 20:33 60.58257 9.59711 13200 ft 398 kts 109°
2026-05-03 20:33 60.57462 9.65078 12667 ft 395 kts 109°
2026-05-03 20:33 60.56673 9.70392 12142 ft 391 kts 109°
2026-05-03 20:33 60.55890 9.75649 11647 ft 386 kts 109°
2026-05-03 20:34 60.55123 9.80780 11158 ft 383 kts 109°
2026-05-03 20:34 60.54352 9.85922 10672 ft 379 kts 109°
2026-05-03 20:34 60.53597 9.90946 10523 ft 366 kts 109°
2026-05-03 20:34 60.53097 9.94262 10416 ft 361 kts 109°
2026-05-03 20:35 60.52119 10.00722 10231 ft 366 kts 109°
2026-05-03 20:35 60.51365 10.05681 10049 ft 369 kts 109°
2026-05-03 20:35 60.50608 10.10659 9754 ft 368 kts 109°
2026-05-03 20:35 60.49856 10.15588 9422 ft 364 kts 109°
2026-05-03 20:36 60.49351 10.18889 9191 ft 361 kts 109°
2026-05-03 20:36 60.48372 10.25274 8763 ft 355 kts 109°
2026-05-03 20:36 60.47877 10.28498 8550 ft 353 kts 109°
2026-05-03 20:36 60.47147 10.33229 8233 ft 350 kts 109°
2026-05-03 20:37 60.46423 10.37916 7916 ft 347 kts 109°
2026-05-03 20:37 60.45703 10.42553 7606 ft 344 kts 109°
2026-05-03 20:37 60.44988 10.47153 7305 ft 341 kts 109°
2026-05-03 20:37 60.44285 10.51663 7024 ft 340 kts 109°
2026-05-03 20:38 60.43572 10.56218 6720 ft 339 kts 109°
2026-05-03 20:38 60.42868 10.60710 6419 ft 328 kts 109°
2026-05-03 20:38 60.42196 10.64990 6163 ft 311 kts 109°
2026-05-03 20:38 60.41557 10.69047 5960 ft 293 kts 109°
2026-05-03 20:39 60.40955 10.72856 5833 ft 276 kts 110°
2026-05-03 20:39 60.40386 10.76454 5656 ft 263 kts 110°
2026-05-03 20:39 60.39839 10.79909 5463 ft 252 kts 110°
2026-05-03 20:39 60.39314 10.83215 5353 ft 244 kts 110°
2026-05-03 20:40 60.38797 10.86466 5228 ft 242 kts 109°
2026-05-03 20:40 60.38475 10.89832 5004 ft 245 kts 98°
2026-05-03 20:40 60.38324 10.93269 4770 ft 245 kts 97°
2026-05-03 20:40 60.38084 10.96662 4506 ft 242 kts 109°
2026-05-03 20:41 60.37442 10.99661 4324 ft 227 kts 124°
2026-05-03 20:41 60.36507 11.02195 3924 ft 222 kts 138°
2026-05-03 20:41 60.35363 11.04245 3572 ft 216 kts 147°
2026-05-03 20:41 60.34214 11.06109 3297 ft 206 kts 144°
2026-05-03 20:42 60.33140 11.07916 3022 ft 195 kts 144°
2026-05-03 20:42 60.32131 11.09617 2784 ft 183 kts 144°
2026-05-03 20:42 60.31162 11.11124 2551 ft 168 kts 152°
2026-05-03 20:42 60.30174 11.12103 2390 ft 150 kts 164°
2026-05-03 20:43 60.29217 11.12582 2210 ft 131 kts 174°
2026-05-03 20:43 60.28337 11.12695 2040 ft 126 kts 183°
2026-05-03 20:43 60.27477 11.12507 1881 ft 124 kts 192°
2026-05-03 20:43 60.26637 11.12094 1730 ft 124 kts 196°
2026-05-03 20:44 60.25810 11.11616 1553 ft 125 kts 195°
2026-05-03 20:44 60.24970 11.11119 1397 ft 129 kts 196°
2026-05-03 20:44 60.24095 11.10601 1251 ft 133 kts 195°
2026-05-03 20:44 60.23197 11.10079 1049 ft 134 kts 194°
2026-05-03 20:45 60.22292 11.09556 876 ft 135 kts 193°
2026-05-03 20:45 60.21405 11.09047 699 ft 130 kts 193°
2026-05-03 20:45 60.20668 11.08623 678 ft 81 kts 195°
2026-05-03 20:45 60.20340 11.08442 676 ft 20 kts 186°
2026-05-03 20:46 60.20252 11.08616 675 ft 20 kts 108°
2026-05-03 20:46 60.20212 11.08879 677 ft 20 kts 108°
2026-05-03 20:46 60.20166 11.09167 679 ft 22 kts 104°
2026-05-03 20:46 60.20124 11.09464 679 ft 22 kts 106°
2026-05-03 20:47 60.20083 11.09753 678 ft 21 kts 106°
2026-05-03 20:47 60.20042 11.10031 685 ft 21 kts 106°
2026-05-03 20:47 60.20004 11.10302 681 ft 20 kts 105°
2026-05-03 20:47 60.19968 11.10549 684 ft 14 kts 115°
2026-05-03 20:48 60.19882 11.10573 681 ft 14 kts 196°
2026-05-03 20:48 60.19781 11.10514 682 ft 15 kts 196°
2026-05-03 20:48 60.19684 11.10459 683 ft 14 kts 195°
2026-05-03 20:48 60.19596 11.10406 684 ft 13 kts 208°
2026-05-03 20:49 60.19589 11.10268 684 ft 10 kts 285°
2026-05-03 20:49 60.19601 11.10184 682 ft 1 kts 286°
2026-05-03 20:49 60.19602 11.10181 682 ft 0 kts 286°